Location: Unspecified
(34.8530°N, 0.0000°E)
Time: 06:39:03
(UTC+00:00)

Nimbus 7 - Visible Passes

Search period start: 04 April 2026 00:00
Search period end: 14 April 2026 00:00
Orbit: 941 x 955 km, 99.5° (Epoch: 29 March)

Date Brightness Start Highest point End Pass type
(mag) Time Alt. Az. Time Alt. Az. Time Alt. Az.
4 Apr 7.2 21:54:17 10° NNE 21:55:14 15° NNE 21:55:14 15° NNE visible
4 Apr 7.7 23:39:12 10° NNW 23:39:18 10° NNW 23:39:18 10° NNW visible
5 Apr 7.1 22:10:55 10° N 22:12:15 17° N 22:12:15 17° N visible
6 Apr 7.1 22:27:41 10° N 22:29:15 19° N 22:29:15 19° N visible
7 Apr 7.2 22:44:33 10° N 22:46:16 19° NNW 22:46:16 19° NNW visible
8 Apr 7.1 21:18:40 10° NNE 21:19:13 13° NE 21:19:13 13° NE visible
8 Apr 7.2 23:01:33 10° N 23:03:17 18° NNW 23:03:17 18° NNW visible
9 Apr 7.0 21:35:03 10° NNE 21:36:14 16° NNE 21:36:14 16° NNE visible
9 Apr 7.4 23:18:44 10° NNW 23:20:17 15° NNW 23:20:17 15° NNW visible
10 Apr 6.9 21:51:33 10° NNE 21:53:14 20° NNE 21:53:14 20° NNE visible
10 Apr 7.5 23:36:13 10° NNW 23:37:19 13° NW 23:37:19 13° NW visible
11 Apr 6.8 22:08:12 10° NNE 22:10:14 23° N 22:10:14 23° N visible
12 Apr 6.8 22:24:56 10° N 22:27:15 24° N 22:27:15 24° N visible
13 Apr 7.1 20:59:52 10° NE 21:00:12 11° NE 21:00:12 11° NE visible
13 Apr 6.8 22:41:46 10° N 22:44:16 24° NNW 22:44:16 24° NNW visible
